cover

 

Get it on iTunes StoreListen on Apple Music

Space Motion

#Trackname / Key / BPM / Publish dateArtists, Remixers / Label
1 122 bpm, 8B / C major, 2019-01-28, Progressive House,  2  1
1
2 124 bpm, 9B / G major, 2019-01-17, Progressive House,  0  17
3 124 bpm, 7A / D minor, 2019-01-07, Melodic House & Techno,  6  1
4 124 bpm, 9B / G major, 2018-12-21, Afro House,  0  1
5 123 bpm, 5B / Eb major, 2018-12-17, Progressive House,  0  32
6 122 bpm, 12B / E major, 2018-12-17, Progressive House,  0  32
7 119 bpm, 7A / D minor, 2018-12-17, Progressive House,  3  2
8 124 bpm, 7A / D minor, 2018-12-17, Afro House,  0  2
9 123 bpm, 12B / E major, 2018-12-17, Progressive House,  0  60
10 120 bpm, 3B / Db major, 2018-12-17, Progressive House,  3  4
11 125 bpm, 12B / E major, 2018-12-17, Melodic House & Techno,  1  4
12 124 bpm, 12B / E major, 2018-12-17, Melodic House & Techno,  0  4
13 126 bpm, 8B / C major, 2018-12-17, Melodic House & Techno,  0  4
14 124 bpm, 11B / A major, 2018-11-12, Afro House,  1  10
15 125 bpm, 6B / Bb major, 2018-10-29, Progressive House,  22  2
16 125 bpm, 7B / F major, 2018-10-29, Progressive House,  5  2
17 123 bpm, 6B / Bb major, 2018-10-26, Progressive House,  1  25
18 122 bpm, 5B / Eb major, 2018-10-15, Progressive House,  7  3
19 124 bpm, 4B / Ab major, 2018-10-13, Melodic House & Techno,  0  20
20 124 bpm, 8A / A minor, 2018-10-13, Tech House,  0  20
21 123 bpm, 12B / E major, 2018-10-01, Progressive House,  3  3
22 126 bpm, 12B / E major, 2018-10-01, Progressive House,  0  3
23 124 bpm, 5B / Eb major, 2018-10-01, Techno,  0  3
24 123 bpm, 9B / G major, 2018-09-17, Melodic House & Techno,  0  3
25 122 bpm, 5B / Eb major, 2018-07-23, Progressive House,  6  3
26 123 bpm, 5B / Eb major, 2018-07-23, Progressive House,  9  3
27 122 bpm, 7B / F major, 2018-07-23, Progressive House,  3  3
28 123 bpm, 6B / Bb major, 2018-07-02, Progressive House,  0  1
29 124 bpm, 6A / G minor, 2018-06-28, Afro House,  0  3
30 124 bpm, 8B / C major, 2018-06-28, Progressive House,  0  3
31 122 bpm, 10B / D major, 2018-06-16, Progressive House,  0  1
32 124 bpm, 9B / G major, 2018-04-20, Deep House,  0  1
33 122 bpm, 5B / Eb major, 2018-04-02, Progressive House,  19  2
34 122 bpm, 12B / E major, 2018-03-16, Progressive House,  0  21
35 128 bpm, 2B / F# major, 2018-03-02, Dance,  0  13
36 122 bpm, 12B / E major, 2018-01-29, Progressive House,  6  1
37 128 bpm, 2B / F# major, 2018-01-26, Dance,  0  10
38 124 bpm, 11B / A major, 2018-01-22, Afro House,  12  3
39 124 bpm, 7B / F major, 2018-01-22, Progressive House,  4  3
40 122 bpm, 10B / D major, 2018-01-22, Progressive House,  3  3
41 123 bpm, 8A / A minor, 2018-01-08, Progressive House,  0  20
42 126 bpm, 12B / E major, 2017-12-29, Progressive House,  0  100
43 124 bpm, 9B / G major, 2017-12-25, Progressive House,  2  20
44 122 bpm, 4B / Ab major, 2017-11-20, Progressive House,  3  10
45 122 bpm, 4B / Ab major, 2017-11-10, Progressive House,  0  14
46 125 bpm, 12B / E major, 2017-09-28, Progressive House,  0  15
47 124 bpm, 11A / F# minor, 2017-09-22, Progressive House,  0  16
48 124 bpm, 2B / F# major, 2017-09-22, Progressive House,  2  16
49 124 bpm, 4B / Ab major, 2017-08-14, Progressive House,  0  1
50 123 bpm, 12B / E major, 2017-07-17, Progressive House,  0  3
51 123 bpm, 8A / A minor, 2017-07-17, Progressive House,  1  3
52 123 bpm, 9A / E minor, 2017-07-17, Progressive House,  1  3
53 122 bpm, 4B / Ab major, 2017-07-13, Progressive House,  0  14
54 126 bpm, 12B / E major, 2017-06-16, Progressive House,  0  53
55 121 bpm, 9B / G major, 2017-06-12, Techno,  0  10
56 130 bpm, 7A / D minor, 2017-04-17, Trance,  0  5
57 130 bpm, 7A / D minor, 2017-04-17, Trance,  0  5
58 126 bpm, 12B / E major, 2017-04-07, Progressive House,  1  11
59 121 bpm, 9B / G major, 2017-02-21, Techno,  6  3
60 127 bpm, 8A / A minor, 2017-02-21, Techno,  0  3
61 124 bpm, 8A / A minor, 2017-02-21, Tech House,  0  3
62 122 bpm, 4B / Ab major, 2017-02-06, Progressive House,  8  2
63 125 bpm, 12B / E major, 2017-02-06, Progressive House,  2  2
64 130 bpm, 10A / B minor, 2017-01-23, Trance,  0  9
65 130 bpm, 7A / D minor, 2017-01-23, Trance,  0  9
66 136 bpm, 10A / B minor, 2017-01-23, Trance,  0  9
67 128 bpm, 10A / B minor, 2017-01-23, Trance,  0  9
68 128 bpm, 10A / B minor, 2017-01-23, Trance,  0  9
69 128 bpm, 10A / B minor, 2017-01-23, Trance,  0  9
70 130 bpm, 10A / B minor, 2017-01-23, Trance,  0  9
71 130 bpm, 7A / D minor, 2017-01-23, Trance,  0  9
72 132 bpm, 10B / D major, 2017-01-23, Trance,  0  9
73 123 bpm, 11B / A major, 2017-01-09, Techno,  0  3
74 126 bpm, 6B / Bb major, 2016-12-19, Progressive House,  0  10
75 124 bpm, 12B / E major, 2016-09-16, Progressive House,  2  2
76 123 bpm, 1A / Ab minor, 2016-09-16, Progressive House,  2  2
77 126 bpm, 6B / Bb major, 2016-08-22, Progressive House,  4  2
78 124 bpm, 1A / Ab minor, 2016-08-22, Progressive House,  0  2
79 124 bpm, 8A / A minor, 2016-05-20, Techno,  0  1
80 124 bpm, 6B / Bb major, 2015-04-13, Deep House,  0  1
81 128 bpm, 2B / F# major, 2014-12-05, House,  0  13
82 128 bpm, 2B / F# major, 2014-08-29, House,  0  1
83 130 bpm, 7A / D minor, 2014-08-22, Trance,  0  30
84 127 bpm, 2A / Eb minor, 2011-11-08, Progressive House,  0  10
85 135 bpm, 3A / Bb minor, 2011-07-01, Techno,  0  5
86 127 bpm, 1A / Ab minor, 2011-06-16, House,  0  2
87 127 bpm, 1A / Ab minor, 2011-06-16, House,  0  2
88 128 bpm, 9A / E minor, 2010-07-26, Tech House,  1  5
89 128 bpm, 11B / A major, 2010-07-26, Progressive House,  0  5
90 128 bpm, 9B / G major, 2010-07-26, Electro House,  0  5
91 128 bpm, 9B / G major, 2010-07-26, Progressive House,  0  5
92 137 bpm, 9A / E minor, 2010-07-26, Trance,  0  5
93 136 bpm, 10A / B minor, 2010-06-29, Trance,  0  20
×

Sign in

Sign in to access your personalized pages, follow artists and labels you love, and create playlists fromyour favorite tracks.

Please wait...